Home   Weather   Kiritimati   Past weeks

Flag for Kiribati Past Weather in Kiritimati, Christmas Island, Kiribati — Yesterday and Last 2 Weeks

Now
77 °F

Passing clouds.


Feels Like: 78 °F
Forecast: 77 / 81 °F
Wind: 5 mph from Southeast

Location: Christmas / Cassidy

Current Time: Jan 24, 2017 at 5:03:42 am

Latest Report: Jan 24, 2017 at 4:00 am


Visibility: N/A

Pressure: 29.80 "Hg

Humidity: 94%

Dew Point: 75 °F

Location of KiritimatiLocation

Past Weather in Kiritimati — Graph

°F

Kiritimati Temperature Yesterday

Maximum temperature yesterday: 84 °F (at 2:00 pm)
Minimum temperature yesterday: 75 °F (at 6:00 am)
Average temperature yesterday: 79 °F

High & Low Weather Summary for the Past Weeks

 TemperatureHumidityPressure
High84 °F (Jan 10, 12:00 pm)100% (Jan 15, 12:00 am)29.89 "Hg (Jan 15, 12:00 am)
Low73 °F (Jan 22, 5:00 am)70% (Jan 13, 1:00 pm)29.56 "Hg (Jan 20, 9:00 am)
Average79 °F86%29.81 "Hg
* Reported Jan 9 4:00 am — Jan 24 4:00 am, Kiritimati, Weather by CustomWeather, © 2017

Note: Actual official high and low records may vary slightly from our data, if they occured in-between our weather recording intervals... More about our weather records

Advertising

Kiritimati Weather History for the Previous 24 Hours

Scroll right to see more
 ConditionsComfort  
Time TempWeatherWind HumidityBarometerVisibility
4:00 am
Tue, Jan 24
77 °FPassing clouds.5 mph94%29.80 "HgN/A
12:00 am79 °FPassing clouds.12 mph89%29.86 "HgN/A
11:00 pm
Mon, Jan 23
79 °FPassing clouds.9 mph89%29.86 "HgN/A
10:00 pm77 °FPassing clouds.10 mph94%29.86 "HgN/A
9:00 pm79 °FPassing clouds.9 mph89%29.86 "HgN/A
8:00 pm79 °FPassing clouds.14 mph89%29.83 "HgN/A
7:00 pm79 °FPassing clouds.12 mph89%29.80 "HgN/A
6:00 pm81 °FPassing clouds.10 mph84%29.80 "HgN/A
5:00 pm82 °FPassing clouds.12 mph84%29.77 "HgN/A
4:00 pm84 °FScattered clouds.14 mph79%29.74 "HgN/A
3:00 pm82 °FBroken clouds.15 mph84%29.74 "HgN/A
2:00 pm84 °FBroken clouds.12 mph79%29.77 "HgN/A
1:00 pm82 °FScattered clouds.16 mph74%29.77 "HgN/A
12:00 pm82 °FScattered clouds.16 mph84%29.80 "HgN/A
11:00 am82 °FScattered clouds.18 mph84%29.80 "HgN/A
10:00 am82 °FPassing clouds.16 mph79%29.83 "HgN/A
8:00 am77 °FScattered clouds.9 mph94%29.83 "HgN/A
7:00 am75 °FPassing clouds.1 mph94%29.80 "HgN/A
6:00 am75 °FPassing clouds.1 mph94%29.80 "HgN/A
5:00 am77 °FPassing clouds.3 mph94%29.80 "HgN/A
Weather by CustomWeather, © 2017

See weather overviewHow to use our weather pages